Starlink 32513

operational
NORAD ID: 61964 Int'l Des: 2024-210 Owner: SPXS Country: US Constellation: starlink
LEOCIRCULAR

About Starlink 32513

Description loading...

Live Position

Loading 3D Globe...

Upcoming Passes

Altitude History

Altitude vs Time

uPlot chart will show altitude changes over time

Two-Line Element Set

1 61964U 24210F 26034.27137216 .00044704 00000-0 16228-2 0 9999
2 61964 43.0034 359.7082 0001537 263.4249 96.6428 15.27608732 69812
Epoch: Feb 3, 2026 • Age: 17 hours

Current Status

Altitude 483.6 km
Velocity 7.63 km/s
Sub-Earth Point -7.39°S, 64.1°E
Launch Date Nov 14, 2024
Age 1.2 years
Type internet

Technical Details

Classification Payload
Mass 730.00 kg
Dry Mass 700.00 kg
Total Mass 730.00 kg
Length 0.30 m
Diameter 4.10 m
Span 29.00 m
Shape Box + pan
Manufacturer SPXS
Bus Type Starlink V2M
Phase Status In Orbit
Owner/State SPXS/US

Large Constellations

Loading constellations...